Regional Weather Roundup
Issued by NWS

Home | Current Version | Previous Version | Graphics & Text | Print | Product List | Glossary On
Versions: 1 2 3 4 5 6 7 8 9 10 11 12 13 14 15 16 17 18 19 20 21 22 23 24 25 26 27 28 29 30 31 32 33 34 35 36 37 38 39 40 41 42 43 44 45 46 47 48 49 50
683
ASUS43 KTOP 241459
RWRKS

WEATHER ROUNDUP FOR KANSAS
NATIONAL WEATHER SERVICE GOODLAND KS
1000 AM CDT MON JUL 24 2017

NOTE:  "FAIR" INDICATES FEW OR NO CLOUDS BELOW 12,000 FEET WITH NO
SIGNIFICANT WEATHER AND/OR OBSTRUCTIONS TO VISIBILITY.

KSZ001>006-013>018-027>032-041>047-241600-
NORTHWEST KANSAS

CITY           SKY/WX    TMP DP  RH WIND       PRES   REMARKS
GOODLAND       SUNNY     81  65  58 S12       30.07S
HAYS             N/A     82  66  58 CALM      30.03S
HILL CITY      SUNNY     78  66  66 CALM      30.03F
RUSSELL        SUNNY     83  66  56 S5        30.01S
$$

KSZ061>065-074>080-084>089-241600-
SOUTHWEST KANSAS

CITY           SKY/WX    TMP DP  RH WIND       PRES   REMARKS
DODGE CITY     SUNNY     84  64  50 S8        30.06S
ELKHART          N/A     78  57  48 SW7         N/A
GARDEN CITY    SUNNY     81  64  56 S7        30.06S
LIBERAL        SUNNY     81  66  60 MISG        N/A
$$

KSZ066>073-081>083-090>101-241600-
SOUTHEAST KANSAS

CITY           SKY/WX    TMP DP  RH WIND       PRES   REMARKS
CHANUTE        SUNNY     87  73  62 N6        29.99S
COFFEYVILLE    SUNNY     84  73  69 VRB3      29.98S
HUTCHINSON     SUNNY     84  69  60 NW3       30.00S
MEDICINE LODGE   N/A     84  66  54 W3        30.00S
NEWTON         SUNNY     82  70  66 CALM      30.02S
PARSONS        SUNNY     84  73  69 N3        30.00S
WICHITA INTL   SUNNY     87  69  54 CALM      29.99S
WICHITA JABRA  SUNNY     85  71  63 MISG      30.00S
WINFIELD       SUNNY     87  69  54 CALM      30.00S
$$

KSZ007>012-019>026-033>040-048>060-102>105-241600-
NORTHEAST KANSAS

CITY           SKY/WX    TMP DP  RH WIND       PRES   REMARKS
CONCORDIA      SUNNY     78  67  68 SE9       30.02S
EMPORIA        SUNNY     80  70  71 E6        30.01S
LAWRENCE       PTSUNNY   78  69  73 NE7       30.01F
MANHATTAN      SUNNY     81  68  64 E9        30.00F
OLATHE IND     PTSUNNY   79  66  64 E8        30.03S
OLATHE EXE     MOSUNNY   77  67  71 E8        30.03R
SALINA         SUNNY     83  72  69 SE6       30.01S
TOPEKA BILLARD SUNNY     79  69  71 E9        30.01F
TOPEKA FORBES  SUNNY     81  68  64 E10       30.02S
$$




USA.gov is the U.S. government's official web portal to all federal, state and local government web resources and services.